Hourly Weather Homustah

Today, 13 April, Tuesday

Time Temperature Precipitation Wind Pressure Humidity
00:00 -19°C° 0 mm 1 mps 753 mmHg 99%
01:00 -20°C° 0 mm 1 mps 753 mmHg 99%
02:00 -21°C° 0 mm 1 mps 753 mmHg 99%
03:00 -21°C° 0 mm 1 mps 752 mmHg 99%
04:00 -21°C° 0 mm 1 mps 752 mmHg 99%
05:00 -21°C° 0 mm 1 mps 752 mmHg 99%
06:00 -17°C° 0 mm 1 mps 751 mmHg 97%
07:00 -13°C° 0 mm 1 mps 751 mmHg 95%
08:00 -8°C° 0 mm 1 mps 751 mmHg 92%
09:00 -8°C° 0 mm 2 mps 750 mmHg 88%
10:00 -6°C° 0 mm 2 mps 749 mmHg 83%
11:00 -4°C° 0 mm 2 mps 749 mmHg 79%
12:00 -4°C° 0 mm 2 mps 748 mmHg 77%
13:00 -4°C° 0 mm 3 mps 748 mmHg 74%
14:00 -4°C° 0 mm 3 mps 747 mmHg 72%
15:00 -4°C° 0 mm 3 mps 746 mmHg 74%
16:00 -4°C° 0 mm 3 mps 746 mmHg 76%
17:00 -4°C° 0 mm 3 mps 745 mmHg 79%
18:00 -6°C° 0 mm 3 mps 745 mmHg 82%
19:00 -7°C° 0 mm 3 mps 745 mmHg 86%
20:00 -9°C° 0 mm 3 mps 744 mmHg 90%
21:00 -9°C° 0 mm 3 mps 744 mmHg 89%
22:00 -10°C° 0 mm 3 mps 743 mmHg 89%
23:00 -10°C° 0 mm 3 mps 743 mmHg 88%

Tomorrow, 14 April, Wednesday

Time Temperature Precipitation Wind Pressure Humidity
00:00 -10°C° 0 mm 3 mps 742 mmHg 88%
01:00 -12°C° 0 mm 3 mps 742 mmHg 88%
02:00 -12°C° 0 mm 3 mps 742 mmHg 88%
03:00 -13°C° 0 mm 3 mps 741 mmHg 89%
04:00 -13°C° 0 mm 3 mps 741 mmHg 89%
05:00 -13°C° 0 mm 3 mps 741 mmHg 89%
06:00 -12°C° 0 mm 3 mps 741 mmHg 87%
07:00 -10°C° 0 mm 3 mps 741 mmHg 86%
08:00 -8°C° 0 mm 3 mps 740 mmHg 84%
09:00 -7°C° 0 mm 3 mps 740 mmHg 84%
10:00 -6°C° 0 mm 3 mps 740 mmHg 83%
11:00 -4°C° 0 mm 3 mps 740 mmHg 83%
12:00 -4°C° 0.2 mm 3 mps 740 mmHg 87%
13:00 -2°C° 0.2 mm 3 mps 740 mmHg 91%
14:00 -2°C° 0.2 mm 2 mps 740 mmHg 94%
15:00 -2°C° 0.2 mm 2 mps 740 mmHg 94%
16:00 -2°C° 0.2 mm 2 mps 740 mmHg 94%
17:00 -1°C° 0.2 mm 2 mps 740 mmHg 93%
18:00 -3°C° 0.1 mm 2 mps 741 mmHg 94%
19:00 -4°C° 0.1 mm 2 mps 741 mmHg 95%
20:00 -5°C° 0.1 mm 2 mps 741 mmHg 95%
21:00 -7°C° 0 mm 2 mps 741 mmHg 96%
22:00 -8°C° 0 mm 2 mps 741 mmHg 96%
23:00 -10°C° 0 mm 2 mps 741 mmHg 96%

Day after tomorrow, 15 April, Thursday

Time Temperature Precipitation Wind Pressure Humidity
00:00 -13°C° 0 mm 2 mps 741 mmHg 97%
01:00 -13°C° 0 mm 1 mps 741 mmHg 98%
02:00 -14°C° 0 mm 1 mps 741 mmHg 99%
03:00 -15°C° 0 mm 1 mps 741 mmHg 99%
04:00 -15°C° 0 mm 1 mps 741 mmHg 99%
05:00 -15°C° 0 mm 1 mps 741 mmHg 99%
06:00 -1°C° 0 mm 1 mps 741 mmHg 88%
07:00 -2°C° 0 mm 1 mps 741 mmHg 91%
08:00 -5°C° 0 mm 0 mps 741 mmHg 94%
09:00 -4°C° 0 mm 0 mps 741 mmHg 94%
10:00 -2°C° 0 mm 0 mps 741 mmHg 94%
11:00 -1°C° 0 mm 0 mps 741 mmHg 95%
12:00 0°C° 0 mm 1 mps 741 mmHg 87%
13:00 +1°C° 0 mm 1 mps 741 mmHg 84%
14:00 +1°C° 0 mm 1 mps 741 mmHg 81%
15:00 +1°C° 0 mm 1 mps 741 mmHg 81%
16:00 +1°C° 0 mm 1 mps 742 mmHg 81%
17:00 0°C° 0 mm 0 mps 742 mmHg 81%
18:00 -3°C° 0.1 mm 1 mps 742 mmHg 95%
19:00 -6°C° 0.1 mm 1 mps 742 mmHg 94%
20:00 -9°C° 0.1 mm 1 mps 743 mmHg 94%
21:00 -10°C° 0 mm 1 mps 743 mmHg 95%
22:00 -12°C° 0 mm 2 mps 743 mmHg 95%
23:00 -13°C° 0 mm 2 mps 742 mmHg 95%

16 April, Friday

Time Temperature Precipitation Wind Pressure Humidity
00:00 -13°C° 0 mm 2 mps 742 mmHg 94%
01:00 -12°C° 0 mm 2 mps 742 mmHg 94%
02:00 -12°C° 0 mm 2 mps 742 mmHg 93%
03:00 -13°C° 0 mm 2 mps 742 mmHg 94%
04:00 -14°C° 0 mm 2 mps 742 mmHg 94%
05:00 -15°C° 0 mm 2 mps 741 mmHg 95%
06:00 -12°C° 0 mm 2 mps 741 mmHg 92%
07:00 -9°C° 0 mm 3 mps 741 mmHg 89%
08:00 -6°C° 0 mm 3 mps 740 mmHg 86%
09:00 -5°C° 0 mm 4 mps 739 mmHg 85%
10:00 -4°C° 0 mm 4 mps 738 mmHg 84%
11:00 -4°C° 0 mm 5 mps 738 mmHg 82%
12:00 -4°C° 0.2 mm 5 mps 737 mmHg 85%
13:00 -4°C° 0.2 mm 5 mps 736 mmHg 87%
14:00 -4°C° 0.2 mm 6 mps 735 mmHg 90%
15:00 -4°C° 0.1 mm 6 mps 734 mmHg 89%
16:00 -4°C° 0.1 mm 6 mps 732 mmHg 87%
17:00 -4°C° 0.1 mm 6 mps 731 mmHg 86%
18:00 -4°C° 0.2 mm 6 mps 730 mmHg 88%
19:00 -4°C° 0.2 mm 6 mps 728 mmHg 91%
20:00 -4°C° 0.2 mm 7 mps 727 mmHg 93%
21:00 -4°C° 0.6 mm 7 mps 727 mmHg 90%
22:00 -4°C° 0.6 mm 7 mps 726 mmHg 86%
23:00 -4°C° 0.6 mm 7 mps 725 mmHg 82%

17 April, Saturday

Time Temperature Precipitation Wind Pressure Humidity
00:00 -5°C° 0 mm 6 mps 726 mmHg 82%
01:00 -6°C° 0 mm 5 mps 726 mmHg 81%
02:00 -7°C° 0 mm 5 mps 727 mmHg 80%
03:00 -8°C° 0 mm 5 mps 726 mmHg 80%
04:00 -8°C° 0 mm 4 mps 726 mmHg 80%
05:00 -8°C° 0 mm 4 mps 726 mmHg 79%
06:00 -7°C° 0 mm 5 mps 726 mmHg 78%
07:00 -7°C° 0 mm 5 mps 726 mmHg 77%
08:00 -6°C° 0 mm 5 mps 726 mmHg 76%
09:00 -6°C° 0 mm 6 mps 726 mmHg 76%
10:00 -6°C° 0 mm 6 mps 726 mmHg 77%
11:00 -6°C° 0 mm 6 mps 726 mmHg 77%
12:00 -7°C° 0.1 mm 7 mps 726 mmHg 78%
13:00 -7°C° 0.1 mm 7 mps 727 mmHg 79%
14:00 -7°C° 0.1 mm 7 mps 727 mmHg 80%
15:00 -8°C° 0.1 mm 7 mps 727 mmHg 82%
16:00 -10°C° 0.1 mm 8 mps 728 mmHg 84%
17:00 -10°C° 0.1 mm 8 mps 729 mmHg 86%
18:00 -11°C° 0 mm 8 mps 729 mmHg 85%
19:00 -11°C° 0 mm 8 mps 730 mmHg 84%
20:00 -11°C° 0 mm 8 mps 731 mmHg 83%
21:00 -11°C° 0.1 mm 8 mps 732 mmHg 85%
22:00 -11°C° 0.1 mm 7 mps 732 mmHg 87%
23:00 -11°C° 0.1 mm 7 mps 733 mmHg 88%

18 April, Sunday

Time Temperature Precipitation Wind Pressure Humidity
00:00 -10°C° 0.1 mm 6 mps 734 mmHg 89%
01:00 -11°C° 0.1 mm 6 mps 735 mmHg 89%
02:00 -11°C° 0.1 mm 6 mps 736 mmHg 90%
03:00 -11°C° 0.1 mm 5 mps 737 mmHg 91%
04:00 -11°C° 0.1 mm 5 mps 738 mmHg 91%
05:00 -11°C° 0.1 mm 5 mps 739 mmHg 92%
06:00 -11°C° 0.1 mm 5 mps 740 mmHg 91%
07:00 -11°C° 0.1 mm 5 mps 741 mmHg 90%
08:00 -10°C° 0.1 mm 4 mps 742 mmHg 90%
09:00 -9°C° 0.1 mm 4 mps 743 mmHg 88%
10:00 -9°C° 0.1 mm 4 mps 744 mmHg 87%
11:00 -8°C° 0.1 mm 4 mps 745 mmHg 85%
12:00 -8°C° 0.1 mm 4 mps 745 mmHg 85%
13:00 -8°C° 0.1 mm 4 mps 746 mmHg 84%
14:00 -8°C° 0.1 mm 4 mps 747 mmHg 83%
15:00 -7°C° 0.1 mm 3 mps 747 mmHg 83%
16:00 -7°C° 0.1 mm 3 mps 748 mmHg 84%
17:00 -6°C° 0.1 mm 2 mps 749 mmHg 85%
18:00 -7°C° 0.1 mm 2 mps 749 mmHg 88%
19:00 -7°C° 0.1 mm 1 mps 750 mmHg 92%
20:00 -9°C° 0.1 mm 1 mps 751 mmHg 96%
21:00 -9°C° 0.1 mm 1 mps 751 mmHg 96%
22:00 -9°C° 0.1 mm 1 mps 751 mmHg 97%
23:00 -10°C° 0.1 mm 1 mps 752 mmHg 97%
Show more